User: anonymous   Login
Location: Brno
(49.2000°N, 16.6330°E)
Time: 19:22:16
(UTC+01:00)
Language:

Meteor 1-4 Rocket - Orbit

View from above orbital plane
View from above orbital plane
View from above satellite
View from above satellite

Ground track
Ground track

The orbit data is extracted from the following two-line orbital elements,

1 04394U 70037B   15027.92817357  .00004280  00000-0  17585-3 0  7838
2 04394 081.2468 314.8587 0044645 209.1328 150.7414 15.23016324431888
Epoch (UTC): 27 January 2015 22:16:34
Eccentricity: 0.0044645
inclination: 81.2468°
perigee height: 466 km
apogee height: 527 km
right ascension of ascending node: 314.8587°
argument of perigee: 209.1328°
revolutions per day: 15.23016324
mean anomaly at epoch: 150.7414°
orbit number at epoch: 43188

The dashed part of the orbit path shows where the satellite is in the earth's shadow,  

DLR